Regional Weather Roundup
Issued by NWS

Home | Current Version | Previous Version | Text Only | Print | Product List | Glossary Off
Versions: 1 2 3 4 5 6 7 8 9 10 11 12 13 14 15 16 17 18 19 20 21 22 23 24 25 26 27 28 29 30 31 32 33 34 35 36 37 38 39 40 41 42 43 44 45 46 47 48 49 50

000
ASUS43 KOAX 201902
RWRNE

WEATHER ROUNDUP FOR NEBRASKA
NATIONAL WEATHER SERVICE OMAHA NE
100 PM CST MON FEB 20 2017

NOTES: SATELLITE DATA IS BEING USED TO AUGMENT CLOUD COVER ABOVE
       12000 FEET.
       "FAIR" INDICATES FEW OR NO CLOUDS BELOW 12,000 FEET WITH NO
       SIGNIFICANT WEATHER AND/OR OBSTRUCTIONS TO VISIBILITY.

  * THESE STATIONS DO NOT REPORT WEATHER SUCH AS RAIN...SNOW OR FOG.

NEZ001>004-019>022-054>056-202000-
NEBRASKA PANHANDLE

CITY           SKY/WX    TMP DP  RH WIND       PRES   REMARKS
SCOTTSBLUFF    SUNNY     58  15  18 W14G23    29.94F
ALLIANCE       SUNNY     57  20  23 NW16G25   29.90S
CHADRON        SUNNY     56  27  32 W16       29.89S
KIMBALL        SUNNY     56  18  22 NW18G26   29.96S
SIDNEY         SUNNY     57  15  19 NW23G33   29.94F
$$

NEZ057>060-069>072-079>082-202000-
SOUTHWEST NEBRASKA

CITY           SKY/WX    TMP DP  RH WIND       PRES   REMARKS
NORTH PLATTE   MOSUNNY   60  34  37 NW22G31   29.88S
IMPERIAL       SUNNY     59  26  28 N26G33    29.91S
LEXINGTON      MOSUNNY   58  37  46 NW21G32   29.85S
MCCOOK         SUNNY     62  35  36 N21G33    29.87R
OGALLALA       SUNNY     60  31  33 N21G26    29.90F
$$

NEZ005>010-023>029-035>040-094-202000-
NORTH CENTRAL NEBRASKA

CITY           SKY/WX    TMP DP  RH WIND       PRES   REMARKS
VALENTINE      SUNNY     59  32  36 NW21G32   29.82S
AINSWORTH      MOSUNNY   56  37  49 N24       29.82F
BROKEN BOW     CLOUDY    54  40  59 N26G32    29.84R
O`NEILL        CLOUDY    54  43  67 NW17      29.78R
ORD            CLOUDY    54  40  59 NW20      29.79R
THEDFORD       SUNNY     58  36  43 NW16G24   29.86S
$$

NEZ041-046>049-061>064-073>077-083>087-202000-
SOUTH CENTRAL NEBRASKA

CITY           SKY/WX    TMP DP  RH WIND       PRES   REMARKS
GRAND ISLAND   MOSUNNY   63  42  46 N21G31    29.78R
AURORA         PTSUNNY   62  43  50 NW22      29.77R
HASTINGS       SUNNY     64  40  41 NW22      29.79R
HEBRON         CLOUDY    60  50  70 W8G18     29.77S
HOLDREGE       MOSUNNY   59  37  43 N21G33    29.82S
KEARNEY *      MOSUNNY   61  39  44 N26G32    29.82R
YORK           CLOUDY    59  46  63 W10       29.76R
$$

NEZ011>018-030>034-042>045-202000-
NORTHEAST NEBRASKA

CITY           SKY/WX    TMP DP  RH WIND       PRES   REMARKS
NORFOLK        CLOUDY    54  40  59 NW22      29.74R
ALBION         MOSUNNY   59  41  52 NW20      29.76S
BLAIR          CLOUDY    60  57  88 S12       29.73F
FREMONT        CLOUDY    60  56  89 S6        29.74S
TEKAMAH        CLOUDY    61  56  83 S16       29.73R
WAYNE          CLOUDY    58  47  69 W18       29.72R
$$

NEZ050>053-065>068-078-088>093-202000-
SOUTHEAST NEBRASKA

CITY           SKY/WX    TMP DP  RH WIND       PRES   REMARKS
LINCOLN        CLOUDY    62  55  77 S15       29.75F
OMAHA EPPLEY   LGT RAIN  61  56  83 S7        29.75R
BEATRICE       CLOUDY    61  55  79 S10       29.75F
FALLS CITY     CLOUDY    62  57  83 S14       29.77F
NEBRASKA CITY  CLOUDY    60  58  93 SW10      29.76F
PLATTSMOUTH    CLOUDY    60  55  85 S12       29.76R
$$

NEZ044-045-051>053-067-202000-
OMAHA AREA

CITY           SKY/WX    TMP DP  RH WIND       PRES   REMARKS
OMAHA EPPLEY   LGT RAIN  61  56  83 S7        29.75R
BLAIR          CLOUDY    60  57  88 S12       29.73F
FREMONT        CLOUDY    60  56  89 S6        29.74S
MILLARD        CLOUDY    62  58  86 S5        29.75S
OFFUTT AFB     CLOUDY    67  67 100 S12       29.75S
PLATTSMOUTH    CLOUDY    60  55  85 S12       29.76R
WAHOO          CLOUDY    60  56  86 S8        29.74F
$$




USA.gov is the U.S. government's official web portal to all federal, state and local government web resources and services.